User: anonymous   Login
Location: Saint-Usage
(47.1052°N, 5.2587°E)
Time: 20:27:49
(UTC+01:00)
Language:

Gurwin Techsat 1B - Orbit

View from above orbital plane
View from above orbital plane
View from above satellite
View from above satellite

Ground track
Ground track

The orbit data is extracted from the following two-line orbital elements,

1 25397U 98043D   21341.43128708  .00000005  00000-0  21972-4 0  9994
2 25397  98.7933 286.6656 0000760   0.6353 359.4826 14.23723727216101
Epoch (UTC): 07 December 2021 10:21:03
Eccentricity: 0.0000760
inclination: 98.7933°
perigee height: 812 km
apogee height: 813 km
right ascension of ascending node: 286.6656°
argument of perigee: 0.6353°
revolutions per day: 14.23723727
mean anomaly at epoch: 359.4826°
orbit number at epoch: 21610

The dashed part of the orbit path shows where the satellite is in the earth's shadow,  

DLR